Location: Unspecified
(48.7670°N, 0.0000°E)
Time: 08:18:03
(UTC+00:00)

Altair - Pass Details

Date: 05 October 2020
Orbit: 1502 x 1682 km, 47.2° (Epoch: 20 October)

Event Time Altitude Azimuth Distance (km) Brightness Sun altitude
Rises 19:40:52 0° 285° (WNW) 4,938 11.7 -22.2°
Reaches altitude 10° 19:46:55 10° 258° (WSW) 3,942 10.4 -23.1°
Maximum altitude 19:50:13 12° 239° (WSW) 3,767 10.0 -23.6°
Drops below altitude 10° 19:53:30 10° 219° (SW) 3,917 9.8 -24.1°
Sets 19:59:31 0° 192° (SSW) 4,869 10.0 -25.1°
